www.pogodaiklimat.ru
ПОГОДА в Русвель Роадс
Время
и дата
19:53 24.05
20:53 24.05
21:53 24.05
22:53 24.05
23:24 24.05
23:53 24.05
00:53 25.05
01:53 25.05
02:53 25.05
03:53 25.05
04:53 25.05
05:53 25.05
06:10 25.05
06:21 25.05
06:53 25.05
07:07 25.05
07:15 25.05
07:53 25.05
08:53 25.05
09:53 25.05
10:01 25.05
10:17 25.05
10:53 25.05
11:53 25.05
12:23 25.05
12:53 25.05
13:53 25.05
14:53 25.05
15:07 25.05
15:53 25.05
16:22 25.05
16:30 25.05
16:37 25.05
16:53 25.05
17:53 25.05
18:53 25.05
19:53 25.05
20:48 25.05
20:53 25.05
21:16 25.05
21:53 25.05
22:32 25.05
22:43 25.05
22:53 25.05
23:53 25.05
00:53 26.05
01:53 26.05
02:07 26.05
Ветер
(напр.,м/с)
Видим. Явления Облачность Т
(С)
Тd
(С)
f
(%)
Тe
(С)
Тes
(С)
Комфортность P
(гПа)
Po
(гПа)
Тmin
(С)
Tmax
(С)
R
(мм)
R24
(мм)
S
(см)
Ю 2 14 км 5/5 1500 м +27.8 +25.0 85 +40 +40 очень
душно
1014.9 1013.3 +27.8 +30.6
штиль 0 16 км ясно +27.8 +25.0 85 +40 +40 очень
душно
1014.6 1013.0
ЮЗ 2 16 км 8/8 1260 м +27.8 +24.4 82 +39 +39 очень
душно
1014.6 1013.0
З 2 16 км 8/8 1230 м +27.8 +24.4 82 +39 +39 очень
душно
1014.9 1013.3
штиль 0 16 км 10/10 570 м +27.8 +25.0 85 +40 +40 очень
душно
1013.7
штиль 0 16 км 10/10 660 м +27.2 +25.0 88 +39 +39 очень
душно
1015.2 1013.7
штиль 0 16 км 8/8 1800 м +26.7 +25.0 90 +38 +38 очень
душно
1015.1 1013.7
штиль 0 14 км 5/5 1410 м +26.1 +25.0 94 +37 +37 очень
душно
1014.3 1012.7 +26.1 +28.3
штиль 0 14 км 8/8 1320 м +26.1 +25.0 94 +37 +37 очень
душно
1014.0 1012.3
ЮВ 3 16 км 10/10 1500 м +26.7 +24.4 87 +37 +37 очень
душно
1014.0 1012.3
16 км 8/2 1500 m
[Ac]
+26.7 +23.9 85 +37 +37 очень
душно
1013.7 1012.3
14 км 8/8 570 м +26.7 +23.9 85 +37 +37 очень
душно
1014.1 1012.7
14 км 8/8 600 м +26.7 +24.4 87 +37 +37 очень
душно
1012.7
14 км 5/5 600 м +27.2 +24.4 85 +38 +38 очень
душно
1012.7
14 км 2/2 600 м +27.2 +25.0 88 +39 +39 очень
душно
1014.7 1013.3
14 км 8/8 570 м +27.2 +25.0 88 +39 +40 очень
душно
1013.3
14 км 5/5 570 м +27.2 +25.6 91 +40 +41 очень
душно
1013.3
13 км 2/2 570 м +28.9 +25.0 80 +42 +43 опасность
перегрева
1014.9 1013.3 +26.1 +28.9
13 км 2/2 600 м +28.9 +24.4 77 +41 +46 опасность
перегрева
1015.0 1013.3
13 км 8/8 660 м +30.0 +24.4 72 +42 +45 очень
душно
1015.3 1013.7
13 км 5/5 660 м +30.0 +25.0 75 +43 +54 опасность
перегрева
1013.7
13 км 8/8 750 м +30.6 +25.0 72 +44 +48 очень
душно
1013.7
13 км 8/8 780 м +29.4 +24.4 75 +42 +46 очень
душно
1015.3 1013.7
13 км 10/10 750 м +30.0 +24.4 72 +42 +42 очень
душно
1015.2 1013.7
13 км 5/5 780 м +30.0 +24.4 72 +42 +57 опасность
перегрева
1013.7
13 км 5/5 780 м +31.1 +25.0 70 +45 +59 опасность
перегрева
1014.9 1013.3
13 км 8/8 840 м +30.6 +24.4 70 +43 +49 очень
душно
1014.4 1013.0 +28.9 +31.1
13 км 8/8 810 м +30.0 +24.4 72 +42 +47 очень
душно
1014.0 1012.3
13 км 8/8 810 м +30.6 +25.0 72 +44 +48 очень
душно
1012.3
13 км 8/8 780 м +30.6 +24.4 70 +43 +47 очень
душно
1013.7 1012.3
13 км 8/8 750 м +29.4 +24.4 75 +42 +44 очень
душно
1012.0
13 км 8/8 750 м +29.4 +24.4 75 +42 +44 очень
душно
1012.0
13 км 5/5 750 м +29.4 +24.4 75 +42 +47 опасность
перегрева
1012.3
13 км 2/2 750 м +29.4 +24.4 75 +42 +51 опасность
перегрева
1013.6 1012.0
13 км ясно +28.9 +25.0 80 +42 +47 опасность
перегрева
1013.9 1012.3
14 км ясно +28.3 +25.0 82 +41 +42 опасность
перегрева
1014.3 1012.7
16 км 5/5 660 м +28.3 +25.0 82 +41 +41 опасность
перегрева
1014.8 1013.3 +28.3 +31.1
16 км 8/8 690 м +28.0 +24.0 79 +39 +39 очень
душно
1014.0
16 км 8/8 690 м +27.8 +24.4 82 +39 +39 очень
душно
1015.6 1014.0
16 км 2/2 690 м +27.8 +25.0 85 +40 +40 очень
душно
1014.0
16 км 2/2 600 м +27.2 +25.0 88 +39 +39 очень
душно
1015.7 1014.4
16 км 8/8 600 м +27.2 +25.0 88 +39 +39 очень
душно
1014.4
16 км 5/5 600 м +27.8 +25.0 85 +40 +40 очень
душно
1014.4
16 км 5/5 600 м +27.8 +25.0 85 +40 +40 очень
душно
1015.8 1014.4
16 км ясно +27.8 +25.0 85 +40 +40 очень
душно
1015.3 1013.7
16 км ясно +27.8 +24.4 82 +39 +39 очень
душно
1015.0 1013.3
16 км 5/5 570 м +27.8 +25.0 85 +40 +40 очень
душно
1014.7 1013.0 +26.7 +28.3
16 км 8/8 510 м +27.8 +25.0 85 +40 +40 очень
душно
1013.0
Местоположение метеостанции Roosevelt Roads Naval Station, Ofstie Field: широта 18.2553 долгота -65.6433 высота над уровнем моря 12 м.
В архиве по умолчанию представлена погода в Русвель Роадс за последние 1-2 суток. Обновление информации о фактической погоде в базе происходит ежечасно! Архивные данные за месяц целиком и за предыдущие месяцы Вы можете получить, выбрав интересующий диапазон дат из раскрывающегося списка и нажав кнопку "Ввод!".
Внимание! Архив погоды МЕТАР в базе сайта по станциям, не включенным в климатический монитор, хранится не более 60 дней. Нет смысла пытаться выбрать более раннюю дату.
*Определитесь, кто Вы:
Внимание! Время в таблицах - местное (без учета летнего времени). Для получения всемирного времени необходимо вычесть поправку, которая равна -4 ч.
Смотрите также архив погоды в соседних городах и на ближайших метеорологических станциях:
Партнеры нашего сайта:      
Пояснения к столбцам:
  • Ветер - указаны скорость ветра в м/с - средняя за 10 мин, порывы в срок и между сроками (в фигурных скобках) и направление, откуда дует ветер: С - северный,
  • СВ - северо-восточный, В - восточный, ЮВ - юго-восточный, Ю - южный, ЮЗ - юго-западный, З - западный, СЗ - северо-западный.
  • Видимость - горизонтальная дальность видимости в метрах или километрах. При видимости от 1 до 10 км при отсутствии осадков обычно наблюдается дымка, при ухудшении видимости до 1 км и менее - туман. В сухую погоду видимость может ухудшаться дымом, пылью или мглою.
  • Явления - указаны атмосферные явления, наблюдавшиеся в срок или в последний час перед сроком; фигурными скобками обозначены явления, наблюдавшиеся между сроками (за 1-3 часа до срока); квадратными скобками обозначены град или гололедные отложения с указанием их диаметра в мм.
  • Облачность - указаны через наклонную черту общая и нижняя облачность в баллах и высота нижней границы облаков в метрах; квадратными скобками обозначены формы облаков: Ci - перистые, Cs - перисто-слоистые, Cc - перисто-кучевые, Ac - высококучевые, As - высокослоистые, Sc - слоисто-кучевые, Ns - слоисто-дождевые, Cu - кучевые, Cb - кучево-дождевые. Подробнее классификацию облаков см. в Атласе облаков (PDF).
  • T - Температура воздуха - температура, измеренная на высоте 2 м над землей.
  • Td - Температура точки росы - температура, при понижении до которой содержащийся в воздухе водяной пар достигнет насыщения.
  • f - Относительная влажность воздуха - влажноcть воздуха, измеренная на высоте 2 м над землей.
  • Te - Эффективная температура - температура, которую ощущает одетый по сезону человек в тени. Характеристика душности погоды. При расчете учитывается влияние влажности воздуха и скорости ветра на теплоощущения человека.
  • Tes - Эффективная температура на солнце - температура, которую ощущает человек, с поправкой на солнечный нагрев. Характеристика знойности погоды. Зависит от высоты солнца над горизонтом, облачности и скорости ветра. Ночью, в пасмурную погоду, а также при ветре 12 м/с и более поправка равна нулю.
  • P - Атмосферное давление - приведенное к уровню моря атмосферное давление.
  • Po - Атмосферное давление - измеренное на уровне метеостанции атмосферное давление.
  • Tmin - Минимальная температура - минимум температуры воздуха на высоте 2 м над землей.
  • Tmax - Максимальная температура - максимум температуры воздуха на высоте 2 м над землей.
  • R - Количество осадков - Количество выпавших осадков за период времени, мм. При наведении курсора мыши на число - период времени, за который выпало указанное количество осадков.
  • R24 - Количество осадков - Количество выпавших осадков за 24 часа, мм.
  • S - Снежный покров - Высота снежного покрова, см. При наведении курсора мыши на число - состояние снежного покрова и степень покрытия местности в баллах.